Woodlawn, VA

8:12 PM EST on February 07, 2016 (GMT -0500)
Twin County

Weather History for KHLX - February, 2013

Change the Weather History Date:

Saturday, February 2, 2013

  Actual Average (KBLF) Record (KBLF)
Temperature  
Mean Temperature 25 °F 35 °F  
Max Temperature 35 °F 43 °F 68 °F (1989)
Min Temperature 15 °F 27 °F 0 °F (1976)
Degree Days  
Heating Degree Days 40 30  
Month to date heating degree days 60  
Since 1 July heating degree days 2780  
Cooling Degree Days 0 0  
Month to date cooling degree days 0  
Year to date cooling degree days 0  
Moisture  
Dew Point 16 °F    
Average Humidity 69    
Maximum Humidity 100    
Minimum Humidity 41    
Precipitation  
Precipitation 0.00 in 0.10 in 0.77 in (1974)
Month to date precipitation 0.19  
Year to date precipitation 3.09  
Snow  
Snow 0.00 in - - ()
Month to date snowfall  
Since 1 July snowfall  
Snow Depth -    
Sea Level Pressure  
Sea Level Pressure 30.10 in    
Wind  
Wind Speed 4 mph (South)    
Max Wind Speed 14 mph    
Max Gust Speed 18 mph    
Visibility 8 miles    
Events Snow    
T = Trace of Precipitation, MM = Missing Value Source: NWS Daily Summary

Daily Weather History Graph

Daily Weather History Graph

Search for Another Location

Airport or City:

Trip Planner

Search our weather history database for the weather conditions in past years. The results will help you decide how hot, cold, wet, or windy it might be!

Date:

Astronomy

Feb. 02, 2013 Rise Set
Actual Time 7:24 AM EST 5:50 PM EST
Civil Twilight 6:57 AM EST 6:17 PM EST
Nautical Twilight 6:26 AM EST 6:48 PM EST
Astronomical Twilight 5:55 AM EST 7:18 PM EST
Moon No Moon Rise 10:45 AM EST (2/2)
Length of Visible Light 11h 20m
Length of Day
10h 25m
Waning Gibbous, 60% of the Moon is Illuminated
Feb 2
Waning Gibbous
Feb 3
Last Quarter
Feb 10
New
Feb 17
First Quarter
Feb 25
Full

Hourly Weather History & Observations

Time (EST) Temp. Windchill Dew Point Humidity Pressure Visibility Wind Dir Wind Speed Gust Speed Precip Events Conditions
12:15 AM 17.6 °F - 6.8 °F 63% 30.23 in 10.0 mi Calm Calm - N/A   Clear
12:35 AM 17.6 °F - 8.6 °F 68% 30.24 in 10.0 mi Calm Calm - N/A   Clear
12:55 AM 17.6 °F - 8.6 °F 68% 30.23 in 10.0 mi Calm Calm - N/A   Clear
1:15 AM 17.6 °F 12.3 °F 8.6 °F 68% 30.23 in 10.0 mi West 3.5 mph - N/A   Clear
1:35 AM 17.6 °F - 8.6 °F 68% 30.23 in 10.0 mi Calm Calm - N/A   Clear
1:55 AM 17.6 °F - 8.6 °F 68% 30.23 in 10.0 mi Calm Calm - N/A   Clear
2:15 AM 17.6 °F - 8.6 °F 68% 30.22 in 10.0 mi Calm Calm - N/A   Clear
2:35 AM 15.8 °F - 8.6 °F 73% 30.21 in 10.0 mi Calm Calm - N/A   Clear
2:55 AM 17.6 °F 10.7 °F 8.6 °F 68% 30.21 in 10.0 mi SSE 4.6 mph - N/A   Clear
3:15 AM 17.6 °F - 8.6 °F 68% 30.21 in 10.0 mi Calm Calm - N/A   Clear
3:35 AM 17.6 °F - 8.6 °F 68% 30.22 in 10.0 mi Calm Calm - N/A   Clear
4:15 AM 17.6 °F - 8.6 °F 68% 30.22 in 10.0 mi Calm Calm - N/A   Clear
4:35 AM 17.6 °F 12.3 °F 10.4 °F 73% 30.21 in 10.0 mi WSW 3.5 mph - N/A   Clear
4:55 AM 17.6 °F 12.3 °F 10.4 °F 73% 30.21 in 10.0 mi West 3.5 mph - N/A   Clear
5:15 AM 19.4 °F 14.3 °F 8.6 °F 63% 30.20 in 10.0 mi SW 3.5 mph - N/A   Clear
5:35 AM 17.6 °F - 10.4 °F 73% 30.21 in 10.0 mi Calm Calm - N/A   Clear
5:55 AM 17.6 °F 10.7 °F 10.4 °F 73% 30.20 in 10.0 mi South 4.6 mph - N/A   Clear
6:15 AM 17.6 °F 9.3 °F 10.4 °F 73% 30.20 in 10.0 mi South 5.8 mph - N/A   Clear
6:35 AM 17.6 °F 12.3 °F 10.4 °F 73% 30.20 in 10.0 mi South 3.5 mph - N/A   Clear
7:15 AM 17.6 °F 9.3 °F 8.6 °F 68% 30.21 in 10.0 mi South 5.8 mph - N/A   Clear
7:35 AM 17.6 °F 9.3 °F 10.4 °F 73% 30.21 in 10.0 mi South 5.8 mph - N/A   Clear
7:55 AM 17.6 °F 10.7 °F 10.4 °F 73% 30.22 in 10.0 mi South 4.6 mph - N/A   Clear
8:15 AM 19.4 °F 11.5 °F 8.6 °F 63% 30.21 in 10.0 mi South 5.8 mph - N/A   Clear
8:35 AM 21.2 °F 16.4 °F 8.6 °F 58% 30.21 in 10.0 mi South 3.5 mph - N/A   Clear
8:55 AM 23.0 °F 15.8 °F 10.4 °F 59% 30.21 in 10.0 mi South 5.8 mph - N/A   Scattered Clouds
9:35 AM 26.6 °F 17.5 °F 10.4 °F 51% 30.19 in 10.0 mi South 9.2 mph - N/A   Scattered Clouds
9:55 AM 28.4 °F 18.5 °F 10.4 °F 47% 30.19 in 10.0 mi South 11.5 mph - N/A   Scattered Clouds
10:15 AM 28.4 °F 19.1 °F 10.4 °F 47% 30.18 in 10.0 mi South 10.4 mph - N/A   Scattered Clouds
10:35 AM 28.4 °F 19.7 °F 12.2 °F 51% 30.17 in 10.0 mi South 9.2 mph - N/A   Scattered Clouds
10:55 AM 28.4 °F 19.1 °F 10.4 °F 47% 30.16 in 10.0 mi South 10.4 mph - N/A   Clear
11:15 AM 30.2 °F 22.6 °F 12.2 °F 47% 30.14 in 10.0 mi South 8.1 mph - N/A   Clear
11:35 AM 28.4 °F 17.5 °F 10.4 °F 47% 30.14 in 10.0 mi South 13.8 mph - N/A   Clear
11:55 AM 30.2 °F 21.9 °F 10.4 °F 44% 30.13 in 10.0 mi South 9.2 mph - N/A   Clear
12:15 PM 32.0 °F 22.5 °F 12.2 °F 44% 30.11 in 10.0 mi SSW 12.7 mph - N/A   Scattered Clouds
12:35 PM 33.8 °F 25.8 °F 12.2 °F 41% 30.10 in 10.0 mi South 10.4 mph 18.4 mph N/A   Scattered Clouds
12:55 PM 32.0 °F 23.6 °F 12.2 °F 44% 30.09 in 10.0 mi SSW 10.4 mph - N/A   Mostly Cloudy
1:15 PM 33.8 °F 27.7 °F 12.2 °F 41% 30.09 in 10.0 mi South 6.9 mph - N/A   Scattered Clouds
1:35 PM 33.8 °F 28.6 °F 14.0 °F 44% 30.06 in 10.0 mi South 5.8 mph - N/A   Scattered Clouds
1:55 PM 33.8 °F 27.0 °F 14.0 °F 44% 30.05 in 10.0 mi South 8.1 mph - N/A   Clear
2:15 PM 35.6 °F 29.2 °F 15.8 °F 44% 30.04 in 10.0 mi South 8.1 mph - N/A   Clear
2:35 PM 33.8 °F 27.7 °F 15.8 °F 48% 30.03 in 10.0 mi South 6.9 mph - N/A   Mostly Cloudy
2:55 PM 33.8 °F 25.8 °F 14.0 °F 44% 30.03 in 10.0 mi South 10.4 mph - N/A   Mostly Cloudy
3:15 PM 33.8 °F 27.0 °F 12.2 °F 41% 30.02 in 10.0 mi South 8.1 mph 16.1 mph N/A   Mostly Cloudy
3:35 PM 33.8 °F 29.6 °F 14.0 °F 44% 30.02 in 10.0 mi South 4.6 mph - N/A   Scattered Clouds
3:55 PM 33.8 °F 24.8 °F 15.8 °F 48% 30.01 in 7.0 mi South 12.7 mph 17.3 mph N/A Snow Light Snow
4:15 PM 30.2 °F 22.6 °F 23.0 °F 75% 30.01 in 3.0 mi South 8.1 mph - N/A Snow Light Snow
4:35 PM 30.2 °F 21.3 °F 21.2 °F 69% 30.00 in 3.0 mi South 10.4 mph - N/A Snow Light Snow
4:55 PM 30.2 °F 22.6 °F 21.2 °F 69% 30.00 in 3.0 mi South 8.1 mph 16.1 mph N/A Snow Light Snow
5:15 PM 30.2 °F 21.9 °F 21.2 °F 69% 30.00 in 7.0 mi South 9.2 mph - N/A Snow Light Snow
5:35 PM 30.2 °F 23.4 °F 21.2 °F 69% 30.00 in 5.0 mi South 6.9 mph - N/A Snow Light Snow
5:55 PM 30.2 °F 21.9 °F 23.0 °F 75% 30.00 in 3.0 mi South 9.2 mph - N/A Snow Light Snow
6:15 PM 30.2 °F 21.3 °F 24.8 °F 80% 29.99 in 4.0 mi South 10.4 mph - N/A Snow Light Snow
6:35 PM 30.2 °F 22.6 °F 24.8 °F 80% 29.99 in 3.0 mi SSW 8.1 mph - N/A Snow Light Snow
6:55 PM 28.4 °F 22.2 °F 26.6 °F 93% 29.99 in 1.2 mi SSW 5.8 mph - N/A Snow Light Snow
7:15 PM 28.4 °F 21.2 °F 26.6 °F 93% 29.99 in 5.0 mi South 6.9 mph - N/A Snow Light Snow
7:35 PM 28.4 °F 22.2 °F 26.6 °F 93% 29.99 in 4.0 mi SW 5.8 mph - N/A Snow Light Snow
7:55 PM 28.4 °F 23.3 °F 26.6 °F 93% 29.99 in 4.0 mi SW 4.6 mph - N/A Snow Light Snow
8:15 PM 28.4 °F 23.3 °F 26.6 °F 93% 29.99 in 1.5 mi SSW 4.6 mph - N/A Snow Light Snow
8:35 PM 28.4 °F 24.6 °F 26.6 °F 93% 29.99 in 2.5 mi SSW 3.5 mph - N/A Snow Light Snow
8:55 PM 28.4 °F 24.6 °F 26.6 °F 93% 29.99 in 3.0 mi South 3.5 mph - N/A Snow Light Snow
9:15 PM 28.4 °F - 28.4 °F 100% 29.98 in 2.5 mi Calm Calm - N/A Snow Light Snow
9:35 PM 28.4 °F - 28.4 °F 100% 29.99 in 2.5 mi Calm Calm - N/A Snow Light Snow
9:55 PM 28.4 °F - 28.4 °F 100% 29.99 in 2.0 mi Calm Calm - N/A Snow Light Snow
10:15 PM 28.4 °F - 28.4 °F 100% 29.98 in 1.2 mi Calm Calm - N/A Snow Light Snow
10:35 PM 30.2 °F - 28.4 °F 93% 29.97 in 1.2 mi Calm Calm - N/A Snow Light Snow
10:55 PM 30.2 °F - 28.4 °F 93% 29.96 in 1.5 mi Calm Calm - N/A Snow Light Snow
11:15 PM 28.4 °F - 28.4 °F 100% 29.96 in 5.0 mi Calm Calm - N/A Snow Light Snow
11:35 PM 28.4 °F - 28.4 °F 100% 29.96 in 1.8 mi Calm Calm - N/A Snow Light Snow
11:55 PM 28.4 °F - 28.4 °F 100% 29.96 in 7.0 mi Calm Calm - N/A   Overcast